Regional Weather Roundup
Issued by NWS

Home | Current Version | Previous Version | Graphics & Text | Print | Product List | Glossary On
Versions: 1 2 3 4 5 6 7 8 9 10 11 12 13 14 15 16 17 18 19 20 21 22 23 24 25 26 27 28 29 30 31 32 33 34 35 36 37 38 39 40 41 42 43 44 45 46 47 48 49 50
000
ASUS43 KLSX 251907
RWRMO

WEATHER SUMMARY FOR MISSOURI
NATIONAL WEATHER SERVICE SPRINGFIELD MO
100 PM CST SAT FEB 25 2017

NOTE: "FAIR" INDICATES FEW OR NO CLOUDS BELOW 12,000 FEET WITH NO
       SIGNIFICANT WEATHER AND/OR OBSTRUCTIONS TO VISIBILITY.
       CURRENT SKY AND/OR WEATHER CONDITIONS ARE NOT AVAILABLE FOR
       CHILLICOTHE AND FARMINGTON.

MOZ001>031-035>038-043-044-053-054-252000-
...NORTHERN AND WESTERN MISSOURI...

CITY           SKY/WX    TMP DP  RH WIND       PRES   REMARKS
KANSAS CTY INT MOSUNNY   38  12  34 VRB7      30.15F
KANSAS C DTWN  SUNNY     39   9  29 NW8       30.16F
LEE`S SUMMIT   SUNNY     38  11  32 NE6       30.15F
ST JOSEPH      MOSUNNY   32  19  58 S3        30.16F
CHILLICOTHE      N/A     37  14  38 VRB3      30.15S
KIRKSVILLE     SUNNY     34  14  43 NW15G22   30.09S WCI  24

$$
MOZ066>068-077>081-088>096-101>105-252000-
...SOUTHWEST MISSOURI...

CITY           SKY/WX    TMP DP  RH WIND       PRES   REMARKS
SPRINGFIELD    SUNNY     40  15  36 NW15      30.15F
JOPLIN         SUNNY     39  16  39 NW6       30.20F
BRANSON        SUNNY     39  14  35 NW10      30.16F

$$
MOZ032>034-039>042-045>050-055>058-069>072-252000-
...CENTRAL MISSOURI...

CITY           SKY/WX    TMP DP  RH WIND       PRES   REMARKS
COLUMBIA       SUNNY     37  12  35 NW17G23   30.11F WCI  27
JEFFERSON CITY SUNNY     36  12  37 NW12G23   30.13F WCI  28
ROLLA          FLURRIES  36  12  37 NW16G23   30.09F WCI  26
SEDALIA        SUNNY     40  10  29 NW13G22   30.15F
WHITEMAN AFB   MOSUNNY   39   8  27 NW8G16    30.13F
WARRENSBURG    SUNNY     37  10  32 N9        30.15F
OSAGE BEACH    SUNNY     38   9  30 NW7G23    30.14F

$$
MOZ051-052-059>065-252000-
...EAST CENTRAL MISSOURI...

CITY           SKY/WX    TMP DP  RH WIND       PRES   REMARKS
ST LOUIS INTL  MOSUNNY   38  14  37 W16G25    30.08S WCI  29
SPIRIT OF STL  MOSUNNY   39  14  36 W13G23    30.08F
ST CHARLES     SUNNY     36  14  40 W20G26    30.08S WCI  25

$$
MOZ072>076-082>087-097>100-106>115-252000-
...SOUTH CENTRAL AND SOUTHEAST MISSOURI...

CITY           SKY/WX    TMP DP  RH WIND       PRES   REMARKS
CAPE GIRARDEAU SUNNY     41  15  35 NW13      30.09F
FARMINGTON     SUNNY     38  14  37 NW14      30.08S WCI  30
POPLAR BLUFF   SUNNY     43  16  33 W14G20    30.10F
WEST PLAINS    SUNNY     42  15  33 NW9G22    30.12S

$$


USA.gov is the U.S. government's official web portal to all federal, state and local government web resources and services.